Year,Month,Day,Hour,Minute,Value (Times are PST for temperature in C)
2013,07,01,00,00,21.60
2013,07,01,00,01,21.60
2013,07,01,00,02,21.60
2013,07,01,00,03,21.60
2013,07,01,00,04,21.50
2013,07,01,00,05,21.50
2013,07,01,00,06,21.50
2013,07,01,00,07,21.40
2013,07,01,00,08,21.40
2013,07,01,00,09,21.40
2013,07,01,00,10,21.40
2013,07,01,00,11,21.40
2013,07,01,00,12,21.40
2013,07,01,00,13,21.30
2013,07,01,00,14,21.30
2013,07,01,00,15,21.30
2013,07,01,00,16,21.30
2013,07,01,00,17,21.30
2013,07,01,00,18,21.30
2013,07,01,00,19,21.30
2013,07,01,00,20,21.30
2013,07,01,00,21,21.30
2013,07,01,00,22,21.30
2013,07,01,00,23,21.30
2013,07,01,00,24,21.30
2013,07,01,00,25,21.20
2013,07,01,00,26,21.20
2013,07,01,00,27,21.20
2013,07,01,00,28,21.20
2013,07,01,00,29,21.20
2013,07,01,00,30,21.20
2013,07,01,00,31,21.20
2013,07,01,00,32,21.20
2013,07,01,00,33,21.10
2013,07,01,00,34,21.10
2013,07,01,00,35,21.10
2013,07,01,00,36,21.10
2013,07,01,00,37,21.10
2013,07,01,00,38,21.10
2013,07,01,00,39,21.10
2013,07,01,00,40,21.10
2013,07,01,00,41,21.10
2013,07,01,00,42,21.00
2013,07,01,00,43,21.00
2013,07,01,00,44,21.00
2013,07,01,00,45,21.00
2013,07,01,00,46,20.90
2013,07,01,00,47,20.90
2013,07,01,00,48,20.90
2013,07,01,00,49,20.90
2013,07,01,00,50,20.80
2013,07,01,00,51,20.80
2013,07,01,00,52,20.80
2013,07,01,00,53,20.80
2013,07,01,00,54,20.80
2013,07,01,00,55,20.80
2013,07,01,00,56,20.80
2013,07,01,00,57,20.80
2013,07,01,00,58,20.70
2013,07,01,00,59,20.70
2013,07,01,01,00,20.70
2013,07,01,01,01,20.70
2013,07,01,01,02,20.70
2013,07,01,01,03,20.60
2013,07,01,01,04,20.60
2013,07,01,01,05,20.60
2013,07,01,01,06,20.60
2013,07,01,01,07,20.60
2013,07,01,01,08,20.50
2013,07,01,01,09,20.50
2013,07,01,01,10,20.50
2013,07,01,01,11,20.50
2013,07,01,01,12,20.40
2013,07,01,01,13,20.40
2013,07,01,01,14,20.40
2013,07,01,01,15,20.40
2013,07,01,01,16,20.40
2013,07,01,01,17,20.40
2013,07,01,01,18,20.40
2013,07,01,01,19,20.40
2013,07,01,01,20,20.40
2013,07,01,01,21,20.40
2013,07,01,01,22,20.40
2013,07,01,01,23,20.40
2013,07,01,01,24,20.30
2013,07,01,01,25,20.30
2013,07,01,01,26,20.30
2013,07,01,01,27,20.30
2013,07,01,01,28,20.30
2013,07,01,01,29,20.20
2013,07,01,01,30,20.20
2013,07,01,01,31,20.20
2013,07,01,01,32,20.20
2013,07,01,01,33,20.20
2013,07,01,01,34,20.20
2013,07,01,01,35,20.20
2013,07,01,01,36,20.20
2013,07,01,01,37,20.20
2013,07,01,01,38,20.20
2013,07,01,01,39,20.20
2013,07,01,01,40,20.20
2013,07,01,01,41,20.20
2013,07,01,01,42,20.20
2013,07,01,01,43,20.20
2013,07,01,01,44,20.30
2013,07,01,01,45,20.30
2013,07,01,01,46,20.20
2013,07,01,01,47,20.20
2013,07,01,01,48,20.20
2013,07,01,01,49,20.20
2013,07,01,01,50,20.30
2013,07,01,01,51,20.30
2013,07,01,01,52,20.30
2013,07,01,01,53,20.30
2013,07,01,01,54,20.30
2013,07,01,01,55,20.30
2013,07,01,01,56,20.30
2013,07,01,01,57,20.30
2013,07,01,01,58,20.30
2013,07,01,01,59,20.30
2013,07,01,02,00,20.30
2013,07,01,02,01,20.30
2013,07,01,02,02,20.40
2013,07,01,02,03,20.40
2013,07,01,02,04,20.40
2013,07,01,02,05,20.40
2013,07,01,02,06,20.40
2013,07,01,02,07,20.30
2013,07,01,02,08,20.30
2013,07,01,02,09,20.30
2013,07,01,02,10,20.30
2013,07,01,02,11,20.30
2013,07,01,02,12,20.20
2013,07,01,02,13,20.20
2013,07,01,02,14,20.20
2013,07,01,02,15,20.20
2013,07,01,02,16,20.20
2013,07,01,02,17,20.20
2013,07,01,02,18,20.20
2013,07,01,02,19,20.20
2013,07,01,02,20,20.20
2013,07,01,02,21,20.20
2013,07,01,02,22,20.20
2013,07,01,02,23,20.10
2013,07,01,02,24,20.10
2013,07,01,02,25,20.10
2013,07,01,02,26,20.10
2013,07,01,02,27,20.10
2013,07,01,02,28,20.10
2013,07,01,02,29,20.10
2013,07,01,02,30,20.10
2013,07,01,02,31,20.10
2013,07,01,02,32,20.10
2013,07,01,02,33,20.10
2013,07,01,02,34,20.10
2013,07,01,02,35,20.10
2013,07,01,02,36,20.10
2013,07,01,02,37,20.10
2013,07,01,02,38,20.10
2013,07,01,02,39,20.10
2013,07,01,02,40,20.10
2013,07,01,02,41,20.10
2013,07,01,02,42,20.10
2013,07,01,02,43,20.10
2013,07,01,02,44,20.10
2013,07,01,02,45,20.10
2013,07,01,02,46,20.10
2013,07,01,02,47,20.20
2013,07,01,02,48,20.20
2013,07,01,02,49,20.20
2013,07,01,02,50,20.20
2013,07,01,02,51,20.20
2013,07,01,02,52,20.20
2013,07,01,02,53,20.20
2013,07,01,02,54,20.20
2013,07,01,02,55,20.20
2013,07,01,02,56,20.20
2013,07,01,02,57,20.20
2013,07,01,02,58,20.10
2013,07,01,02,59,20.10
2013,07,01,03,00,20.10
2013,07,01,03,01,20.10
2013,07,01,03,02,20.10
2013,07,01,03,03,20.00
2013,07,01,03,04,20.00
2013,07,01,03,05,20.00
2013,07,01,03,06,20.00
2013,07,01,03,07,20.00
2013,07,01,03,08,20.00
2013,07,01,03,09,20.00
2013,07,01,03,10,20.00
2013,07,01,03,11,19.90
2013,07,01,03,12,19.90
2013,07,01,03,13,19.90
2013,07,01,03,14,19.90
2013,07,01,03,15,19.90
2013,07,01,03,16,19.90
2013,07,01,03,17,19.90
2013,07,01,03,18,20.00
2013,07,01,03,19,20.00
2013,07,01,03,20,20.00
2013,07,01,03,21,20.00
2013,07,01,03,22,20.00
2013,07,01,03,23,20.00
2013,07,01,03,24,20.00
2013,07,01,03,25,20.00
2013,07,01,03,26,19.90
2013,07,01,03,27,19.90
2013,07,01,03,28,19.90
2013,07,01,03,29,19.90
2013,07,01,03,30,19.90
2013,07,01,03,31,19.80
2013,07,01,03,32,19.80
2013,07,01,03,33,19.80
2013,07,01,03,34,19.70
2013,07,01,03,35,19.70
2013,07,01,03,36,19.70
2013,07,01,03,37,19.70
2013,07,01,03,38,19.60
2013,07,01,03,39,19.60
2013,07,01,03,40,19.60
2013,07,01,03,41,19.60
2013,07,01,03,42,19.60
2013,07,01,03,43,19.50
2013,07,01,03,44,19.50
2013,07,01,03,45,19.50
2013,07,01,03,46,19.50
2013,07,01,03,47,19.40
2013,07,01,03,48,19.40
2013,07,01,03,49,19.40
2013,07,01,03,50,19.30
2013,07,01,03,51,19.30
2013,07,01,03,52,19.30
2013,07,01,03,53,19.20
2013,07,01,03,54,19.20
2013,07,01,03,55,19.20
2013,07,01,03,56,19.10
2013,07,01,03,57,19.10
2013,07,01,03,58,19.10
2013,07,01,03,59,19.10
2013,07,01,04,00,19.00
2013,07,01,04,01,19.00
2013,07,01,04,02,18.90
2013,07,01,04,03,18.90
2013,07,01,04,04,18.90
2013,07,01,04,05,18.80
2013,07,01,04,06,18.80
2013,07,01,04,07,18.90
2013,07,01,04,08,18.90
2013,07,01,04,09,18.90
2013,07,01,04,10,18.90
2013,07,01,04,11,18.90
2013,07,01,04,12,18.80
2013,07,01,04,13,18.80
2013,07,01,04,14,18.80
2013,07,01,04,15,18.80
2013,07,01,04,16,18.80
2013,07,01,04,17,18.80
2013,07,01,04,18,18.70
2013,07,01,04,19,18.70
2013,07,01,04,20,18.70
2013,07,01,04,21,18.70
2013,07,01,04,22,18.70
2013,07,01,04,23,18.60
2013,07,01,04,24,18.60
2013,07,01,04,25,18.60
2013,07,01,04,26,18.60
2013,07,01,04,27,18.60
2013,07,01,04,28,18.60
2013,07,01,04,29,18.60
2013,07,01,04,30,18.60
2013,07,01,04,31,18.60
2013,07,01,04,32,18.60
2013,07,01,04,33,18.50
2013,07,01,04,34,18.50
2013,07,01,04,35,18.50
2013,07,01,04,36,18.50
2013,07,01,04,37,18.50
2013,07,01,04,38,18.50
2013,07,01,04,39,18.50
2013,07,01,04,40,18.50
2013,07,01,04,41,18.40
2013,07,01,04,42,18.40
2013,07,01,04,43,18.40
2013,07,01,04,44,18.40
2013,07,01,04,45,18.40
2013,07,01,04,46,18.40
2013,07,01,04,47,18.30
2013,07,01,04,48,18.30
2013,07,01,04,49,18.30
2013,07,01,04,50,18.30
2013,07,01,04,51,18.30
2013,07,01,04,52,18.30
2013,07,01,04,53,18.30
2013,07,01,04,54,18.30
2013,07,01,04,55,18.30
2013,07,01,04,56,18.30
2013,07,01,04,57,18.30
2013,07,01,04,58,18.30
2013,07,01,04,59,18.30
2013,07,01,05,00,18.30
2013,07,01,05,01,18.30
2013,07,01,05,02,18.30
2013,07,01,05,03,18.30
2013,07,01,05,04,18.30
2013,07,01,05,05,18.30
2013,07,01,05,06,18.30
2013,07,01,05,07,18.30
2013,07,01,05,08,18.30
2013,07,01,05,09,18.30
2013,07,01,05,10,18.30
2013,07,01,05,11,18.30
2013,07,01,05,12,18.30
2013,07,01,05,13,18.30
2013,07,01,05,14,18.30
2013,07,01,05,15,18.30
2013,07,01,05,16,18.20
2013,07,01,05,17,18.20
2013,07,01,05,18,18.20
2013,07,01,05,19,18.20
2013,07,01,05,20,18.20
2013,07,01,05,21,18.20
2013,07,01,05,22,18.20
2013,07,01,05,23,18.20
2013,07,01,05,24,18.20
2013,07,01,05,25,18.20
2013,07,01,05,26,18.20
2013,07,01,05,27,18.20
2013,07,01,05,28,18.20
2013,07,01,05,29,18.20
2013,07,01,05,30,18.20
2013,07,01,05,31,18.20
2013,07,01,05,32,18.20
2013,07,01,05,33,18.10
2013,07,01,05,34,18.10
2013,07,01,05,35,18.10
2013,07,01,05,36,18.10
2013,07,01,05,37,18.10
2013,07,01,05,38,18.10
2013,07,01,05,39,18.10
2013,07,01,05,40,18.10
2013,07,01,05,41,18.10
2013,07,01,05,42,18.10
2013,07,01,05,43,18.10
2013,07,01,05,44,18.10
2013,07,01,05,45,18.10
2013,07,01,05,46,18.10
2013,07,01,05,47,18.20
2013,07,01,05,48,18.20
2013,07,01,05,49,18.20
2013,07,01,05,50,18.20
2013,07,01,05,51,18.20
2013,07,01,05,52,18.20
2013,07,01,05,53,18.20
2013,07,01,05,54,18.20
2013,07,01,05,55,18.20
2013,07,01,05,56,18.20
2013,07,01,05,57,18.20
2013,07,01,05,58,18.20
2013,07,01,05,59,18.20
2013,07,01,06,00,18.20
2013,07,01,06,01,18.10
2013,07,01,06,02,18.10
2013,07,01,06,03,18.20
2013,07,01,06,04,18.10
2013,07,01,06,05,18.10
2013,07,01,06,06,18.20
2013,07,01,06,07,18.20
2013,07,01,06,08,18.10
2013,07,01,06,09,18.10
2013,07,01,06,10,18.10
2013,07,01,06,11,18.10
2013,07,01,06,12,18.20
2013,07,01,06,13,18.20
2013,07,01,06,14,18.20
2013,07,01,06,15,18.20
2013,07,01,06,16,18.20
2013,07,01,06,17,18.20
2013,07,01,06,18,18.20
2013,07,01,06,19,18.20
2013,07,01,06,20,18.30
2013,07,01,06,21,18.30
2013,07,01,06,22,18.30
2013,07,01,06,23,18.30
2013,07,01,06,24,18.30
2013,07,01,06,25,18.30
2013,07,01,06,26,18.30
2013,07,01,06,27,18.30
2013,07,01,06,28,18.40
2013,07,01,06,29,18.40
2013,07,01,06,30,18.40
2013,07,01,06,31,18.40
2013,07,01,06,32,18.40
2013,07,01,06,33,18.40
2013,07,01,06,34,18.50
2013,07,01,06,35,18.50
2013,07,01,06,36,18.50
2013,07,01,06,37,18.60
2013,07,01,06,38,18.60
2013,07,01,06,39,18.60
2013,07,01,06,40,18.60
2013,07,01,06,41,18.70
2013,07,01,06,42,18.70
2013,07,01,06,43,18.70
2013,07,01,06,44,18.70
2013,07,01,06,45,18.70
2013,07,01,06,46,18.80
2013,07,01,06,47,18.80
2013,07,01,06,48,18.80
2013,07,01,06,49,18.80
2013,07,01,06,50,18.80
2013,07,01,06,51,18.90
2013,07,01,06,52,18.90
2013,07,01,06,53,18.90
2013,07,01,06,54,18.90
2013,07,01,06,55,18.90
2013,07,01,06,56,19.00
2013,07,01,06,57,19.00
2013,07,01,06,58,19.10
2013,07,01,06,59,19.10
2013,07,01,07,00,19.10
2013,07,01,07,01,19.10
2013,07,01,07,02,19.20
2013,07,01,07,03,19.20
2013,07,01,07,04,19.20
2013,07,01,07,05,19.20
2013,07,01,07,06,19.30
2013,07,01,07,07,19.30
2013,07,01,07,08,19.30
2013,07,01,07,09,19.30
2013,07,01,07,10,19.30
2013,07,01,07,11,19.40
2013,07,01,07,12,19.40
2013,07,01,07,13,19.40
2013,07,01,07,14,19.50
2013,07,01,07,15,19.50
2013,07,01,07,16,19.50
2013,07,01,07,17,19.50
2013,07,01,07,18,19.50
2013,07,01,07,19,19.60
2013,07,01,07,20,19.50
2013,07,01,07,21,19.50
2013,07,01,07,22,19.50
2013,07,01,07,23,19.60
2013,07,01,07,24,19.60
2013,07,01,07,25,19.60
2013,07,01,07,26,19.60
2013,07,01,07,27,19.70
2013,07,01,07,28,19.70
2013,07,01,07,29,19.80
2013,07,01,07,30,19.90
2013,07,01,07,31,19.90
2013,07,01,07,32,20.00
2013,07,01,07,33,20.10
2013,07,01,07,34,20.10
2013,07,01,07,35,20.20
2013,07,01,07,36,20.30
2013,07,01,07,37,20.30
2013,07,01,07,38,20.40
2013,07,01,07,39,20.50
2013,07,01,07,40,20.50
2013,07,01,07,41,20.60
2013,07,01,07,42,20.70
2013,07,01,07,43,20.70
2013,07,01,07,44,20.80
2013,07,01,07,45,20.80
2013,07,01,07,46,20.90
2013,07,01,07,47,21.00
2013,07,01,07,48,21.00
2013,07,01,07,49,21.10
2013,07,01,07,50,21.10
2013,07,01,07,51,21.10
2013,07,01,07,52,21.20
2013,07,01,07,53,21.20
2013,07,01,07,54,21.10
2013,07,01,07,55,21.10
2013,07,01,07,56,21.00
2013,07,01,07,57,20.90
2013,07,01,07,58,20.80
2013,07,01,07,59,20.70
2013,07,01,08,00,20.70
2013,07,01,08,01,20.60
2013,07,01,08,02,20.60
2013,07,01,08,03,20.60
2013,07,01,08,04,20.50
2013,07,01,08,05,20.50
2013,07,01,08,06,20.50
2013,07,01,08,07,20.60
2013,07,01,08,08,20.60
2013,07,01,08,09,20.70
2013,07,01,08,10,20.70
2013,07,01,08,11,20.70
2013,07,01,08,12,20.80
2013,07,01,08,13,20.80
2013,07,01,08,14,20.80
2013,07,01,08,15,20.80
2013,07,01,08,16,20.90
2013,07,01,08,17,21.00
2013,07,01,08,18,21.00
2013,07,01,08,19,21.10
2013,07,01,08,20,21.20
2013,07,01,08,21,21.30
2013,07,01,08,22,21.30
2013,07,01,08,23,21.40
2013,07,01,08,24,21.40
2013,07,01,08,25,21.50
2013,07,01,08,26,21.50
2013,07,01,08,27,21.60
2013,07,01,08,28,21.60
2013,07,01,08,29,21.70
2013,07,01,08,30,21.70
2013,07,01,08,31,21.70
2013,07,01,08,32,21.70
2013,07,01,08,33,21.70
2013,07,01,08,34,21.70
2013,07,01,08,35,21.70
2013,07,01,08,36,21.70
2013,07,01,08,37,21.80
2013,07,01,08,38,21.80
2013,07,01,08,39,21.80
2013,07,01,08,40,21.80
2013,07,01,08,41,21.90
2013,07,01,08,42,21.90
2013,07,01,08,43,22.00
2013,07,01,08,44,22.00
2013,07,01,08,45,22.10
2013,07,01,08,46,22.10
2013,07,01,08,47,22.10
2013,07,01,08,48,22.10
2013,07,01,08,49,22.20
2013,07,01,08,50,22.20
2013,07,01,08,51,22.30
2013,07,01,08,52,22.30
2013,07,01,08,53,22.40
2013,07,01,08,54,22.50
2013,07,01,08,55,22.50
2013,07,01,08,56,22.60
2013,07,01,08,57,22.70
2013,07,01,08,58,22.70
2013,07,01,08,59,22.80
2013,07,01,09,00,22.80
2013,07,01,09,01,22.80
2013,07,01,09,02,22.80
2013,07,01,09,03,22.90
2013,07,01,09,04,22.90
2013,07,01,09,05,22.90
2013,07,01,09,06,23.00
2013,07,01,09,07,23.10
2013,07,01,09,08,23.10
2013,07,01,09,09,23.10
2013,07,01,09,10,23.10
2013,07,01,09,11,23.10
2013,07,01,09,12,23.20
2013,07,01,09,13,23.20
2013,07,01,09,14,23.20
2013,07,01,09,15,23.20
2013,07,01,09,16,23.30
2013,07,01,09,17,23.30
2013,07,01,09,18,23.40
2013,07,01,09,19,23.40
2013,07,01,09,20,23.40
2013,07,01,09,21,23.40
2013,07,01,09,22,23.40
2013,07,01,09,23,23.40
2013,07,01,09,24,23.40
2013,07,01,09,25,23.40
2013,07,01,09,26,23.40
2013,07,01,09,27,23.40
2013,07,01,09,28,23.40
2013,07,01,09,29,23.40
2013,07,01,09,30,23.40
2013,07,01,09,31,23.40
2013,07,01,09,32,23.40
2013,07,01,09,33,23.40
2013,07,01,09,34,23.40
2013,07,01,09,35,23.40
2013,07,01,09,36,23.40
2013,07,01,09,37,23.50
2013,07,01,09,38,23.50
2013,07,01,09,39,23.40
2013,07,01,09,40,23.40
2013,07,01,09,41,23.40
2013,07,01,09,42,23.40
2013,07,01,09,43,23.40
2013,07,01,09,44,23.30
2013,07,01,09,45,23.30
2013,07,01,09,46,23.30
2013,07,01,09,47,23.30
2013,07,01,09,48,23.30
2013,07,01,09,49,23.30
2013,07,01,09,50,23.30
2013,07,01,09,51,23.30
2013,07,01,09,52,23.40
2013,07,01,09,53,23.40
2013,07,01,09,54,23.40
2013,07,01,09,55,23.40
2013,07,01,09,56,23.50
2013,07,01,09,57,23.50
2013,07,01,09,58,23.50
2013,07,01,09,59,23.60
2013,07,01,10,00,23.60
2013,07,01,10,01,23.60
2013,07,01,10,02,23.70
2013,07,01,10,03,23.80
2013,07,01,10,04,23.90
2013,07,01,10,05,24.00
2013,07,01,10,06,24.00
2013,07,01,10,07,24.10
2013,07,01,10,08,24.30
2013,07,01,10,09,24.40
2013,07,01,10,10,24.40
2013,07,01,10,11,24.50
2013,07,01,10,12,24.50
2013,07,01,10,13,24.40
2013,07,01,10,14,24.40
2013,07,01,10,15,24.40
2013,07,01,10,16,24.40
2013,07,01,10,17,24.40
2013,07,01,10,18,24.40
2013,07,01,10,19,24.40
2013,07,01,10,20,24.40
2013,07,01,10,21,24.40
2013,07,01,10,22,24.50
2013,07,01,10,23,24.50
2013,07,01,10,24,24.50
2013,07,01,10,25,24.60
2013,07,01,10,26,24.50
2013,07,01,10,27,24.50
2013,07,01,10,28,24.50
2013,07,01,10,29,24.60
2013,07,01,10,30,24.60
2013,07,01,10,31,24.70
2013,07,01,10,32,24.80
2013,07,01,10,33,24.80
2013,07,01,10,34,24.80
2013,07,01,10,35,24.80
2013,07,01,10,36,24.70
2013,07,01,10,37,24.70
2013,07,01,10,38,24.60
2013,07,01,10,39,24.70
2013,07,01,10,40,24.70
2013,07,01,10,41,24.70
2013,07,01,10,42,24.70
2013,07,01,10,43,24.80
2013,07,01,10,44,24.80
2013,07,01,10,45,24.80
2013,07,01,10,46,24.90
2013,07,01,10,47,25.00
2013,07,01,10,48,25.00
2013,07,01,10,49,25.00
2013,07,01,10,50,24.90
2013,07,01,10,51,24.90
2013,07,01,10,52,24.90
2013,07,01,10,53,25.00
2013,07,01,10,54,25.00
2013,07,01,10,55,25.00
2013,07,01,10,56,25.00
2013,07,01,10,57,24.90
2013,07,01,10,58,24.90
2013,07,01,10,59,24.80
2013,07,01,11,00,24.80
2013,07,01,11,01,24.80
2013,07,01,11,02,24.90
2013,07,01,11,03,24.90
2013,07,01,11,04,25.00
2013,07,01,11,05,25.00
2013,07,01,11,06,25.00
2013,07,01,11,07,25.10
2013,07,01,11,08,25.10
2013,07,01,11,09,25.10
2013,07,01,11,10,25.10
2013,07,01,11,11,25.10
2013,07,01,11,12,25.10
2013,07,01,11,13,25.10
2013,07,01,11,14,25.10
2013,07,01,11,15,25.20
2013,07,01,11,16,25.20
2013,07,01,11,17,25.20
2013,07,01,11,18,25.30
2013,07,01,11,19,25.30
2013,07,01,11,20,25.40
2013,07,01,11,21,25.40
2013,07,01,11,22,25.40
2013,07,01,11,23,25.30
2013,07,01,11,24,25.30
2013,07,01,11,25,25.20
2013,07,01,11,26,25.20
2013,07,01,11,27,25.20
2013,07,01,11,28,25.10
2013,07,01,11,29,25.10
2013,07,01,11,30,25.10
2013,07,01,11,31,25.10
2013,07,01,11,32,25.10
2013,07,01,11,33,25.20
2013,07,01,11,34,25.20
2013,07,01,11,35,25.20
2013,07,01,11,36,25.20
2013,07,01,11,37,25.10
2013,07,01,11,38,25.10
2013,07,01,11,39,25.10
2013,07,01,11,40,25.00
2013,07,01,11,41,24.90
2013,07,01,11,42,24.90
2013,07,01,11,43,24.90
2013,07,01,11,44,24.90
2013,07,01,11,45,24.90
2013,07,01,11,46,24.90
2013,07,01,11,47,24.90
2013,07,01,11,48,24.90
2013,07,01,11,49,24.90
2013,07,01,11,50,24.90
2013,07,01,11,51,24.80
2013,07,01,11,52,24.80
2013,07,01,11,53,24.90
2013,07,01,11,54,24.90
2013,07,01,11,55,25.00
2013,07,01,11,56,25.00
2013,07,01,11,57,25.10
2013,07,01,11,58,25.10
2013,07,01,11,59,25.20
2013,07,01,12,00,25.30
2013,07,01,12,01,25.30
2013,07,01,12,02,25.30
2013,07,01,12,03,25.40
2013,07,01,12,04,25.40
2013,07,01,12,05,25.40
2013,07,01,12,06,25.40
2013,07,01,12,07,25.40
2013,07,01,12,08,25.40
2013,07,01,12,09,25.40
2013,07,01,12,10,25.40
2013,07,01,12,11,25.40
2013,07,01,12,12,25.30
2013,07,01,12,13,25.30
2013,07,01,12,14,25.20
2013,07,01,12,15,25.10
2013,07,01,12,16,25.00
2013,07,01,12,17,25.00
2013,07,01,12,18,24.90
2013,07,01,12,19,24.80
2013,07,01,12,20,24.80
2013,07,01,12,21,24.80
2013,07,01,12,22,24.80
2013,07,01,12,23,24.80
2013,07,01,12,24,24.90
2013,07,01,12,25,24.90
2013,07,01,12,26,24.90
2013,07,01,12,27,24.80
2013,07,01,12,28,24.80
2013,07,01,12,29,24.70
2013,07,01,12,30,24.70
2013,07,01,12,31,24.70
2013,07,01,12,32,24.70
2013,07,01,12,33,24.80
2013,07,01,12,34,24.80
2013,07,01,12,35,24.80
2013,07,01,12,36,24.80
2013,07,01,12,37,24.80
2013,07,01,12,38,24.90
2013,07,01,12,39,25.00
2013,07,01,12,40,25.10
2013,07,01,12,41,25.20
2013,07,01,12,42,25.20
2013,07,01,12,43,25.30
2013,07,01,12,44,25.30
2013,07,01,12,45,25.30
2013,07,01,12,46,25.30
2013,07,01,12,47,25.40
2013,07,01,12,48,25.40
2013,07,01,12,49,25.50
2013,07,01,12,50,25.60
2013,07,01,12,51,25.60
2013,07,01,12,52,25.70
2013,07,01,12,53,25.70
2013,07,01,12,54,25.70
2013,07,01,12,55,25.60
2013,07,01,12,56,25.50
2013,07,01,12,57,25.40
2013,07,01,12,58,25.30
2013,07,01,12,59,25.30
2013,07,01,13,00,25.20
2013,07,01,13,01,25.20
2013,07,01,13,02,25.20
2013,07,01,13,03,25.20
2013,07,01,13,04,25.20
2013,07,01,13,05,25.20
2013,07,01,13,06,25.20
2013,07,01,13,07,25.20
2013,07,01,13,08,25.20
2013,07,01,13,09,25.20
2013,07,01,13,10,25.20
2013,07,01,13,11,25.20
2013,07,01,13,12,25.20
2013,07,01,13,13,25.20
2013,07,01,13,14,25.20
2013,07,01,13,15,25.20
2013,07,01,13,16,25.20
2013,07,01,13,17,25.20
2013,07,01,13,18,25.20
2013,07,01,13,19,25.20
2013,07,01,13,20,25.10
2013,07,01,13,21,25.10
2013,07,01,13,22,25.10
2013,07,01,13,23,25.10
2013,07,01,13,24,25.20
2013,07,01,13,25,25.20
2013,07,01,13,26,25.30
2013,07,01,13,27,25.40
2013,07,01,13,28,25.50
2013,07,01,13,29,25.60
2013,07,01,13,30,25.70
2013,07,01,13,31,25.60
2013,07,01,13,32,25.60
2013,07,01,13,33,25.60
2013,07,01,13,34,25.60
2013,07,01,13,35,25.60
2013,07,01,13,36,25.40
2013,07,01,13,37,25.30
2013,07,01,13,38,25.20
2013,07,01,13,39,25.20
2013,07,01,13,40,25.20
2013,07,01,13,41,25.20
2013,07,01,13,42,25.20
2013,07,01,13,43,25.20
2013,07,01,13,44,25.20
2013,07,01,13,45,25.10
2013,07,01,13,46,25.10
2013,07,01,13,47,25.00
2013,07,01,13,48,24.90
2013,07,01,13,49,24.90
2013,07,01,13,50,24.90
2013,07,01,13,51,24.90
2013,07,01,13,52,24.90
2013,07,01,13,53,25.00
2013,07,01,13,54,25.10
2013,07,01,13,55,25.20
2013,07,01,13,56,25.30
2013,07,01,13,57,25.30
2013,07,01,13,58,25.40
2013,07,01,13,59,25.40
2013,07,01,14,00,25.40
2013,07,01,14,01,25.50
2013,07,01,14,02,25.60
2013,07,01,14,03,25.60
2013,07,01,14,04,25.50
2013,07,01,14,05,25.50
2013,07,01,14,06,25.50
2013,07,01,14,07,25.40
2013,07,01,14,08,25.40
2013,07,01,14,09,25.30
2013,07,01,14,10,25.40
2013,07,01,14,11,25.40
2013,07,01,14,12,25.40
2013,07,01,14,13,25.50
2013,07,01,14,14,25.60
2013,07,01,14,15,25.60
2013,07,01,14,16,25.70
2013,07,01,14,17,25.80
2013,07,01,14,18,25.80
2013,07,01,14,19,25.80
2013,07,01,14,20,25.80
2013,07,01,14,21,25.80
2013,07,01,14,22,25.80
2013,07,01,14,23,25.80
2013,07,01,14,24,25.90
2013,07,01,14,25,25.90
2013,07,01,14,26,25.90
2013,07,01,14,27,25.90
2013,07,01,14,28,25.90
2013,07,01,14,29,25.90
2013,07,01,14,30,25.90
2013,07,01,14,31,25.90
2013,07,01,14,32,25.80
2013,07,01,14,33,25.90
2013,07,01,14,34,25.90
2013,07,01,14,35,25.90
2013,07,01,14,36,25.90
2013,07,01,14,37,26.00
2013,07,01,14,38,26.10
2013,07,01,14,39,26.10
2013,07,01,14,40,26.20
2013,07,01,14,41,26.40
2013,07,01,14,42,26.50
2013,07,01,14,43,26.60
2013,07,01,14,44,26.70
2013,07,01,14,45,26.70
2013,07,01,14,46,26.70
2013,07,01,14,47,26.70
2013,07,01,14,48,26.70
2013,07,01,14,49,26.70
2013,07,01,14,50,26.50
2013,07,01,14,51,26.40
2013,07,01,14,52,26.30
2013,07,01,14,53,26.30
2013,07,01,14,54,26.30
2013,07,01,14,55,26.30
2013,07,01,14,56,26.30
2013,07,01,14,57,26.30
2013,07,01,14,58,26.20
2013,07,01,14,59,26.10
2013,07,01,15,00,26.10
2013,07,01,15,01,26.10
2013,07,01,15,02,26.10
2013,07,01,15,03,26.20
2013,07,01,15,04,26.30
2013,07,01,15,05,26.40
2013,07,01,15,06,26.60
2013,07,01,15,07,26.70
2013,07,01,15,08,26.90
2013,07,01,15,09,27.00
2013,07,01,15,10,27.10
2013,07,01,15,11,27.20
2013,07,01,15,12,27.20
2013,07,01,15,13,27.30
2013,07,01,15,14,27.30
2013,07,01,15,15,27.30
2013,07,01,15,16,27.20
2013,07,01,15,17,27.10
2013,07,01,15,18,27.10
2013,07,01,15,19,27.00
2013,07,01,15,20,26.90
2013,07,01,15,21,26.90
2013,07,01,15,22,26.90
2013,07,01,15,23,26.90
2013,07,01,15,24,26.90
2013,07,01,15,25,27.00
2013,07,01,15,26,27.00
2013,07,01,15,27,27.00
2013,07,01,15,28,27.10
2013,07,01,15,29,27.10
2013,07,01,15,30,27.10
2013,07,01,15,31,27.10
2013,07,01,15,32,27.20
2013,07,01,15,33,27.20
2013,07,01,15,34,27.20
2013,07,01,15,35,27.20
2013,07,01,15,36,27.20
2013,07,01,15,37,27.20
2013,07,01,15,38,27.30
2013,07,01,15,39,27.30
2013,07,01,15,40,27.30
2013,07,01,15,41,27.30
2013,07,01,15,42,27.30
2013,07,01,15,43,27.30
2013,07,01,15,44,27.30
2013,07,01,15,45,27.20
2013,07,01,15,46,27.10
2013,07,01,15,47,27.10
2013,07,01,15,48,27.10
2013,07,01,15,49,27.00
2013,07,01,15,50,26.90
2013,07,01,15,51,26.90
2013,07,01,15,52,26.80
2013,07,01,15,53,26.70
2013,07,01,15,54,26.70
2013,07,01,15,55,26.70
2013,07,01,15,56,26.70
2013,07,01,15,57,26.60
2013,07,01,15,58,26.60
2013,07,01,15,59,26.60
2013,07,01,16,00,26.60
2013,07,01,16,01,26.60
2013,07,01,16,02,26.60
2013,07,01,16,03,26.70
2013,07,01,16,04,26.80
2013,07,01,16,05,26.90
2013,07,01,16,06,26.90
2013,07,01,16,07,27.00
2013,07,01,16,08,27.00
2013,07,01,16,09,27.00
2013,07,01,16,10,26.90
2013,07,01,16,11,26.90
2013,07,01,16,12,26.90
2013,07,01,16,13,26.90
2013,07,01,16,14,26.90
2013,07,01,16,15,26.90
2013,07,01,16,16,26.90
2013,07,01,16,17,26.90
2013,07,01,16,18,26.90
2013,07,01,16,19,27.00
2013,07,01,16,20,27.00
2013,07,01,16,21,27.10
2013,07,01,16,22,27.10
2013,07,01,16,23,27.10
2013,07,01,16,24,27.00
2013,07,01,16,25,27.00
2013,07,01,16,26,26.90
2013,07,01,16,27,26.90
2013,07,01,16,28,26.90
2013,07,01,16,29,26.80
2013,07,01,16,30,26.80
2013,07,01,16,31,26.70
2013,07,01,16,32,26.70
2013,07,01,16,33,26.70
2013,07,01,16,34,26.70
2013,07,01,16,35,26.70
2013,07,01,16,36,26.70
2013,07,01,16,37,26.70
2013,07,01,16,38,26.70
2013,07,01,16,39,26.70
2013,07,01,16,40,26.70
2013,07,01,16,41,26.60
2013,07,01,16,42,26.50
2013,07,01,16,43,26.50
2013,07,01,16,44,26.40
2013,07,01,16,45,26.40
2013,07,01,16,46,26.40
2013,07,01,16,47,26.30
2013,07,01,16,48,26.20
2013,07,01,16,49,26.20
2013,07,01,16,50,26.10
2013,07,01,16,51,26.10
2013,07,01,16,52,26.10
2013,07,01,16,53,26.10
2013,07,01,16,54,26.00
2013,07,01,16,55,26.00
2013,07,01,16,56,26.00
2013,07,01,16,57,26.00
2013,07,01,16,58,26.00
2013,07,01,16,59,26.10
2013,07,01,17,00,26.10
2013,07,01,17,01,26.10
2013,07,01,17,02,26.20
2013,07,01,17,03,26.20
2013,07,01,17,04,26.20
2013,07,01,17,05,26.20
2013,07,01,17,06,26.30
2013,07,01,17,07,26.20
2013,07,01,17,08,26.20
2013,07,01,17,09,26.30
2013,07,01,17,10,26.30
2013,07,01,17,11,26.30
2013,07,01,17,12,26.30
2013,07,01,17,13,26.40
2013,07,01,17,14,26.40
2013,07,01,17,15,26.50
2013,07,01,17,16,26.60
2013,07,01,17,17,26.70
2013,07,01,17,18,26.80
2013,07,01,17,19,26.90